APRIZESAT 4

Last updated on Fri Jun 19 2026 20:04:31 GMT+0000 (Coordinated Universal Time)

1 35684U 09041D 26170.48228555 .00000464 00000+0 62096-4 0 9995 2 35684 98.1412 245.8486 0042262 315.4465 44.3354 14.83881890911705
UTC large
Height (km)
Speed (km/s)
/
Latitude / Longitude
Inclination (degrees)
Orbital Period (minutes)
Azimuth
Elevation
Range (km)
Doppler Factor

Next 0 passes for location: London (51.5072 / 0.1276)

Sorry there are no passes over London.
APRIZESAT 4